Location: Newark
(25.0000°N, 73.5000°E)
Time: 19:43:15
(UTC+00:00)

Altair - Pass Details

Date: 06 March 2021
Orbit: 1501 x 1683 km, 47.2° (Epoch: 10 April)

Event Time Altitude Azimuth Distance (km) Brightness Sun altitude
Rises 09:31:00 0° 185° (S) 4,656 10.5 45.4°
Reaches altitude 10° 09:35:05 10° 169° (S) 3,658 9.9 44.7°
Maximum altitude 09:41:19 20° 125° (SE) 2,906 9.0 43.6°
Drops below altitude 10° 09:47:32 10° 82° (E) 3,649 9.2 42.4°
Sets 09:51:33 0° 66° (ENE) 4,642 9.6 41.7°
